Wetbulb
65.08 64.75 64.37 59.15 49.92 49.60 46.50 48.92 53.11 52.32 54.55 59.23 60.34 59.99 60.09 63.62 64.88 62.07 74.73 74.45 76.97 76.82 76.90 76.73 77.82 78.15 78.30 77.40 76.69 76.66 76.36 76.41 76.51 76.16 76.31 76.76 76.86 77.42 77.59 77.27 76.61 75.95 75.73 75.72 74.89 73.87 72.55 71.49 70.64
62.61 61.87 58.72 55.41 47.55 44.64 46.66 51.73 51.07 53.85 56.88 58.82 59.32 57.63 57.64 64.35 71.01 71.31 72.63 74.94 75.51 77.80 76.56 76.55 77.56 77.87 78.18 77.57 77.39 76.61 76.31 76.61 76.48 76.28 76.53 76.91 77.01 77.09 77.02 76.99 76.38 76.00 75.78 75.06 74.35 73.41 72.19 70.76 69.94
62.18 61.58 54.88 51.27 48.19 45.31 46.92 52.02 53.41 54.75 56.42 56.09 55.85 57.57 57.95 65.07 65.27 67.06 73.60 74.89 75.45 78.10 76.72 77.03 77.46 77.79 77.85 77.90 77.24 76.46 76.33 76.55 76.61 76.26 76.84 76.91 77.11 77.14 76.79 76.41 76.08 76.16 75.27 74.59 73.11 73.08 72.11 70.77 71.49
58.69 57.08 56.22 50.19 47.54 49.72 50.41 52.56 54.01 53.57 55.01 55.41 55.60 53.64 60.73 66.67 63.56 64.77 71.50 75.06 75.37 78.04 78.02 76.41 77.31 77.66 77.92 77.77 77.14 76.53 76.56 76.66 76.41 76.66 76.81 76.88 77.24 76.88 76.46 76.14 76.03 76.24 75.70 74.39 73.34 72.69 72.00 71.36 72.11
56.97 55.44 49.15 47.63 47.98 50.61 52.58 53.97 53.71 52.40 53.65 54.42 54.82 52.84 56.51 61.94 63.15 63.23 67.96 73.07 75.05 76.47 77.51 76.38 77.20 77.54 77.69 77.62 77.11 76.71 76.58 76.23 76.41 76.88 76.96 76.98 76.91 76.40 76.11 76.29 76.41 76.12 75.47 74.30 73.17 72.20 71.81 70.30 72.26
52.06 53.58 47.57 46.46 48.93 51.82 53.74 54.85 53.82 52.43 53.42 54.12 53.75 53.90 56.31 62.60 62.41 61.77 62.58 70.29 73.47 76.35 75.98 76.02 77.02 77.25 77.36 77.29 76.93 76.53 76.13 76.03 76.35 76.63 76.70 76.45 76.35 76.01 76.08 76.44 76.26 75.78 75.08 73.84 72.91 72.06 71.83 72.20 72.67
50.77 49.92 46.85 47.27 47.85 49.61 52.25 55.42 53.32 53.27 53.35 53.51 55.87 52.84 56.48 59.40 63.91 63.08 62.43 63.92 72.62 75.91 76.29 75.52 75.13 76.53 77.18 76.98 76.65 76.30 76.15 75.89 76.05 76.10 76.22 76.07 75.85 76.01 76.08 76.03 76.11 75.56 74.72 73.66 72.87 72.32 71.66 71.94 72.48
52.24 50.79 47.21 47.96 47.79 48.91 53.13 53.58 54.75 53.18 52.38 56.24 56.32 52.25 53.21 58.74 60.72 61.13 61.14 60.53 65.99 73.67 76.21 76.03 75.82 74.57 75.49 76.01 76.78 76.55 76.29 76.07 76.12 76.24 76.09 75.89 75.77 75.93 76.10 75.54 75.56 75.36 74.19 73.20 72.46 71.92 71.75 72.23 73.12
53.85 46.14 44.90 46.89 47.53 48.58 51.90 50.66 53.69 54.68 52.70 53.38 54.21 54.60 56.53 58.54 58.40 57.75 58.53 59.24 61.32 75.36 75.73 75.98 73.94 73.10 73.63 74.51 76.01 76.48 76.55 76.50 76.32 76.20 75.94 75.04 73.70 74.07 74.58 74.49 75.46 74.84 73.87 73.11 72.44 71.96 71.95 72.52 73.20
49.62 46.81 47.33 50.79 50.30 49.00 50.19 49.92 50.50 50.48 50.52 51.08 52.50 55.10 56.69 56.72 57.64 55.83 56.02 57.15 58.46 69.64 74.67 75.47 74.61 72.02 72.15 72.61 75.29 75.40 75.78 75.47 74.70 74.51 74.86 73.22 72.35 72.19 72.85 73.74 75.26 74.63 73.84 73.18 72.65 72.40 72.55 72.80 71.41
52.09 47.51 50.95 51.18 51.85 51.67 50.51 50.33 52.02 50.26 48.96 51.68 51.64 53.66 55.40 56.12 57.30 56.41 56.08 56.82 57.81 60.06 73.35 74.91 76.06 73.76 71.72 71.19 74.81 74.35 74.46 74.29 73.92 73.51 74.05 73.03 71.45 71.74 72.20 73.15 72.13 71.93 72.75 69.65 70.46 69.89 69.62 70.48 71.78
48.42 51.25 51.61 51.27 51.75 50.75 49.64 51.65 50.54 51.07 50.81 53.11 53.45 54.33 54.77 54.77 55.70 55.81 56.37 56.80 57.61 59.34 64.54 75.51 75.88 75.20 72.54 71.44 74.20 73.55 73.56 73.29 72.79 73.00 73.83 71.89 71.77 71.45 72.22 72.80 71.62 69.48 68.96 68.22 68.82 69.38 70.69 72.58 74.91
50.43 51.90 53.11 52.68 52.12 52.11 52.61 51.04 51.31 51.80 54.19 55.00 54.95 54.60 53.90 55.08 55.78 57.05 58.44 59.80 60.63 60.19 62.17 72.77 75.80 76.13 72.70 73.81 72.60 72.02 71.70 71.89 71.77 71.83 73.42 71.80 71.72 71.78 72.66 73.44 70.09 68.30 69.09 68.60 70.73 71.98 74.16 75.00 74.45
52.72 52.59 52.42 52.23 52.34 52.77 51.30 51.21 51.60 52.21 54.32 54.06 54.09 53.95 54.36 54.23 56.18 56.78 58.33 59.95 61.71 63.89 64.45 67.59 74.98 75.41 73.70 73.01 73.49 71.45 71.19 71.08 71.56 71.62 73.18 72.15 72.76 74.14 73.53 73.80 71.85 69.95 69.88 71.26 72.11 73.29 74.50 74.14 73.77
53.21 49.53 50.88 52.26 53.16 52.50 53.24 49.68 50.32 54.25 55.01 53.96 54.34 55.31 56.04 57.27 56.81 57.71 58.85 60.50 62.79 64.23 67.99 67.80 76.00 74.01 74.58 72.63 76.12 72.50 71.76 71.40 71.32 71.98 73.37 72.51 73.89 74.20 72.93 71.99 70.63 71.20 71.02 73.28 74.52 75.25 74.88 73.52 73.39
49.87 50.43 46.91 52.12 52.78 52.68 52.15 46.27 52.01 54.83 54.26 53.44 54.28 55.06 55.89 56.65 57.04 58.92 61.68 62.39 64.63 66.68 66.44 67.34 65.38 75.39 74.22 73.21 72.58 74.26 72.98 72.41 71.18 72.51 73.48 73.07 74.50 74.68 74.52 71.44 69.73 70.72 73.18 73.86 74.85 74.05 72.88 72.32 71.67
50.35 45.75 47.38 48.41 51.91 51.57 50.56 47.82 52.22 54.69 54.58 54.42 55.14 55.80 56.25 56.90 58.46 61.06 61.34 61.33 62.43 65.94 66.39 65.99 67.78 73.27 73.71 74.42 72.84 73.39 74.84 72.29 73.10 73.52 74.23 73.37 73.78 74.12 73.57 70.95 69.64 74.67 72.89 73.87 74.13 72.74 71.84 72.20 69.99
44.45 44.19 45.81 45.78 49.92 50.70 49.30 49.11 52.43 54.75 54.81 55.30 55.91 56.60 57.42 58.35 59.49 61.15 62.82 62.75 64.23 65.24 66.92 68.36 66.50 69.05 73.21 73.80 73.61 71.85 73.22 73.45 74.22 73.22 73.69 73.75 73.03 73.48 72.93 71.84 71.70 73.56 73.51 73.57 72.70 72.33 72.31 71.75 70.66
47.26 46.11 45.52 48.50 51.58 50.39 49.35 49.52 51.59 54.96 55.45 55.12 55.99 56.36 57.59 58.84 61.26 63.67 65.27 65.06 64.74 65.34 66.31 67.47 65.94 67.81 72.62 72.76 72.15 70.73 70.05 71.09 72.22 72.47 74.21 73.67 73.15 73.26 71.91 71.14 75.08 73.85 73.77 72.89 73.72 72.21 71.26 70.82 70.77
47.81 46.41 46.23 49.02 51.33 49.88 49.33 49.33 53.12 54.85 55.02 55.60 55.43 55.59 55.93 56.44 58.04 59.78 62.37 63.18 66.62 65.01 66.96 65.58 66.87 65.79 70.51 72.90 73.46 72.40 71.56 71.59 71.70 72.63 73.14 73.34 72.84 73.50 71.07 71.71 73.74 74.55 73.58 72.52 72.69 72.77 71.33 70.60 69.38
47.56 46.41 46.20 45.87 49.15 50.80 49.87 48.42 50.95 54.30 55.44 56.21 56.47 57.17 57.45 57.46 58.13 59.62 60.95 62.89 63.14 65.74 65.06 65.13 65.85 64.78 71.16 72.03 74.12 73.23 72.51 71.61 70.72 70.92 72.27 72.40 72.51 72.38 70.01 73.27 73.53 73.14 74.08 72.92 73.64 72.89 71.82 69.30 68.21
44.13 48.85 48.25 47.09 45.91 41.92 49.26 41.85 49.49 51.51 52.32 53.82 54.33 54.86 55.83 56.89 58.61 59.27 59.54 60.29 63.10 63.81 65.65 64.95 65.47 64.79 70.21 72.77 72.67 72.15 70.33 68.94 69.86 69.81 70.38 71.61 72.30 71.43 70.22 72.19 73.93 73.46 73.29 72.99 73.02 73.51 72.25 71.49 66.52
45.98 50.22 48.40 48.40 46.38 45.22 46.01 44.76 47.83 51.20 48.69 50.24 52.22 53.62 54.60 56.12 57.36 58.21 59.00 60.15 60.92 62.98 63.70 64.49 65.63 63.96 69.78 71.77 72.21 72.14 71.51 70.98 70.57 68.92 69.76 70.64 71.47 70.99 70.60 72.07 73.85 74.38 73.44 73.33 72.88 71.65 70.72 70.37 68.41
50.55 48.82 48.81 48.16 46.49 40.89 44.81 42.42 43.61 46.90 48.00 50.32 52.33 53.05 54.60 55.42 55.76 58.31 60.36 60.99 59.67 61.32 62.54 62.71 63.87 63.31 66.73 71.28 72.19 71.91 71.12 70.94 69.21 68.24 68.89 69.73 70.35 70.18 69.91 71.31 73.71 74.66 72.45 70.73 70.53 69.39 67.42 65.54 65.54
48.55 46.35 39.10 37.65 37.99 36.83 44.40 41.55 44.34 49.04 51.43 51.55 51.01 52.11 53.14 55.26 55.94 57.19 56.99 56.78 58.00 57.79 59.36 61.70 63.25 62.59 65.55 70.40 71.62 72.16 71.34 71.55 70.09 68.64 68.91 69.32 68.69 69.25 69.14 72.57 73.08 71.87 70.94 69.08 68.34 66.59 66.34 64.67 62.28
46.32 46.22 37.06 29.67 32.69 35.90 43.83 40.19 44.47 50.99 52.70 52.43 51.79 51.62 51.35 51.02 53.24 55.93 56.36 55.12 54.92 57.86 58.38 60.09 61.49 62.13 64.66 70.50 71.21 72.11 72.13 70.98 70.10 69.62 69.84 70.01 69.25 69.28 72.17 72.22 71.98 69.51 67.46 67.21 66.20 64.64 63.19 61.87 60.66
46.35 43.19 47.72 37.85 41.35 37.31 41.44 44.82 49.71 50.56 50.50 50.82 50.64 50.20 48.89 50.70 53.08 54.85 57.30 56.40 54.33 56.50 57.57 57.26 61.14 62.32 66.36 70.24 71.83 71.29 71.43 70.46 68.98 69.38 70.66 71.44 70.53 71.15 72.05 70.83 67.80 66.61 65.62 64.92 63.80 62.03 61.22 60.57 58.91
47.75 49.99 41.65 42.03 31.42 30.81 37.62 39.49 41.42 45.05 47.08 48.54 48.12 47.65 48.15 49.98 51.39 53.76 55.71 55.88 57.21 56.98 56.50 60.23 61.95 62.66 67.50 69.90 71.60 70.53 70.90 70.27 69.91 69.69 70.23 70.50 70.57 71.19 68.73 66.47 64.77 64.09 64.42 63.08 60.74 59.62 59.10 56.54 55.17
46.53 43.46 45.41 44.85 42.27 33.53 31.69 37.13 47.87 47.38 48.21 47.69 48.30 48.61 48.01 48.66 50.16 53.33 56.32 58.48 58.16 58.86 58.81 59.36 62.11 62.94 68.78 69.88 71.32 69.85 70.14 69.01 69.34 69.15 70.19 69.54 69.72 67.30 65.18 64.04 63.18 61.48 59.97 59.54 57.75 56.30 54.45 53.53 52.31
49.30 46.00 45.37 40.36 37.43 38.77 36.87 37.12 50.74 50.16 50.36 50.03 48.56 48.25 48.39 49.13 50.84 52.90 57.04 58.49 60.62 59.18 57.87 63.37 60.60 61.79 67.02 70.15 70.87 70.41 69.33 67.85 67.77 68.04 68.71 67.74 65.69 64.14 63.23 61.12 59.37 58.34 56.51 54.73 53.20 51.81 51.77 51.02 50.49
MSLP
1008.08 1007.07 1006.67 1005.35 1004.27 1001.79 999.41 997.51 995.81 994.26 993.58 993.94 994.56 995.31 995.92 996.12 996.69 999.52 1000.65 1000.61 1000.74 1002.25 1003.33 1004.18 1004.74 1005.22 1005.49 1006.28 1006.85 1007.24 1007.79 1008.13 1008.47 1009.07 1009.59 1009.91 1010.09 1010.13 1010.09 1010.38 1010.75 1010.90 1011.13 1011.25 1011.40 1011.61 1011.85 1012.06 1012.19
1007.97 1006.35 1005.28 1004.09 1002.55 1000.14 997.88 995.97 994.68 994.00 994.57 995.19 995.83 996.17 996.56 997.61 998.56 999.81 1000.61 1001.21 1000.97 1002.37 1003.49 1004.13 1004.84 1005.29 1005.59 1006.39 1006.88 1007.22 1007.86 1008.20 1008.65 1009.06 1009.46 1010.07 1010.39 1010.51 1010.54 1010.59 1010.88 1011.10 1011.27 1011.48 1011.57 1011.72 1011.88 1012.07 1012.23
1008.15 1006.42 1004.80 1002.82 1001.19 999.35 997.31 995.07 994.54 994.67 994.85 995.85 996.54 996.80 996.97 998.43 999.69 1000.05 1000.81 1000.95 1001.11 1002.25 1003.31 1004.16 1004.96 1005.31 1005.70 1006.23 1007.07 1007.12 1007.66 1008.21 1008.66 1009.27 1009.73 1009.91 1010.45 1010.68 1010.84 1010.92 1011.14 1011.37 1011.43 1011.62 1011.70 1011.77 1011.89 1012.05 1012.14
1006.19 1005.17 1004.43 1002.07 999.84 998.04 997.14 995.73 995.60 995.91 995.89 996.73 997.13 997.19 997.73 998.95 999.80 1000.11 1000.53 1000.85 1001.18 1001.69 1002.74 1004.43 1005.11 1005.45 1005.87 1006.27 1006.94 1007.34 1007.69 1008.09 1008.61 1009.06 1009.77 1010.21 1010.29 1010.81 1011.08 1011.13 1011.30 1011.54 1011.68 1011.75 1011.91 1011.98 1012.03 1012.02 1012.10
1005.56 1004.08 1002.70 1000.85 999.45 998.16 996.88 995.83 996.31 996.85 997.04 996.79 997.19 997.63 998.19 999.33 999.78 999.93 1000.33 1000.77 1001.03 1001.61 1002.86 1004.29 1005.13 1005.83 1005.93 1006.39 1006.78 1007.29 1007.66 1007.99 1008.49 1009.06 1009.63 1010.16 1010.65 1010.83 1011.15 1011.29 1011.41 1011.57 1011.81 1011.85 1011.95 1012.01 1012.01 1012.01 1012.05
1004.59 1003.43 1001.90 1000.18 998.59 997.04 996.27 996.48 996.93 997.66 997.91 997.62 997.77 998.11 998.95 999.33 999.68 1000.22 1000.50 1000.71 1000.86 1001.51 1003.20 1004.35 1005.15 1005.77 1006.18 1006.46 1006.95 1007.19 1007.69 1008.13 1008.40 1008.93 1009.40 1010.07 1010.55 1010.98 1011.31 1011.51 1011.57 1011.64 1011.77 1011.87 1011.91 1011.97 1012.01 1012.06 1012.06
1004.20 1002.78 1001.45 1000.08 998.63 997.11 996.46 997.37 998.24 998.64 998.97 998.70 998.36 998.36 998.87 999.21 999.79 1000.39 1000.73 1000.48 1000.89 1001.22 1002.64 1004.15 1004.97 1005.67 1006.29 1006.54 1006.96 1007.35 1007.62 1008.18 1008.53 1008.86 1009.43 1009.86 1010.41 1010.79 1011.12 1011.42 1011.64 1011.74 1011.81 1011.84 1011.83 1011.82 1011.87 1011.95 1011.93
1003.61 1002.92 1001.67 1000.46 999.19 997.96 997.17 997.81 998.92 999.77 999.83 999.70 999.89 999.44 999.48 999.80 1000.27 1000.60 1000.76 1000.42 1000.05 1000.52 1001.77 1003.44 1004.53 1005.37 1006.01 1006.61 1006.94 1007.34 1007.77 1008.08 1008.55 1008.92 1009.41 1009.80 1010.22 1010.65 1011.00 1011.35 1011.53 1011.67 1011.69 1011.69 1011.71 1011.72 1011.70 1011.76 1011.64
1003.75 1003.23 1001.61 1000.14 999.30 998.82 998.76 998.66 999.01 999.96 1000.51 1000.60 1000.69 1000.57 1000.48 1000.11 1000.54 1000.82 1001.08 1000.72 1000.31 1000.39 1001.13 1002.31 1003.83 1005.10 1005.68 1006.20 1006.97 1007.25 1007.77 1008.17 1008.59 1009.07 1009.40 1009.73 1010.06 1010.48 1010.88 1011.08 1011.35 1011.61 1011.61 1011.51 1011.51 1011.45 1011.48 1011.35 1011.35
1003.46 1002.35 1000.92 1000.56 1000.70 1000.45 1000.27 1000.33 1000.38 1000.51 1000.50 1000.59 1000.72 1000.61 1000.69 1000.73 1000.82 1000.76 1000.89 1000.77 1000.41 1000.31 1000.87 1001.69 1002.79 1004.25 1005.31 1005.57 1006.52 1007.18 1007.50 1007.90 1008.46 1008.91 1009.33 1009.40 1009.56 1010.06 1010.26 1010.57 1011.00 1011.43 1011.49 1011.43 1011.40 1011.33 1011.23 1011.28 1011.12
1002.67 1002.35 1001.32 1001.41 1001.36 1001.51 1001.47 1001.38 1001.31 1001.13 1000.97 1000.93 1000.83 1000.81 1000.78 1000.77 1000.75 1000.56 1000.38 1000.34 1000.36 1000.04 1000.29 1001.40 1002.46 1003.39 1004.42 1005.11 1006.08 1006.77 1007.11 1007.48 1007.85 1008.46 1008.87 1009.00 1008.95 1009.39 1009.66 1010.42 1010.86 1011.24 1011.39 1011.26 1011.19 1011.11 1011.01 1010.57 1010.31
1003.19 1002.63 1002.11 1001.93 1002.02 1002.07 1001.94 1001.79 1001.50 1001.44 1001.14 1001.04 1001.03 1001.05 1001.12 1001.19 1001.15 1001.00 1000.75 1000.57 1000.53 1000.45 1000.25 1000.84 1002.05 1002.83 1003.75 1004.41 1005.33 1006.17 1006.49 1006.98 1007.39 1007.73 1008.31 1008.70 1008.72 1008.85 1009.04 1009.68 1009.93 1010.44 1010.59 1010.65 1010.53 1010.25 1009.93 1010.06 1009.55
1003.12 1002.57 1002.17 1002.09 1002.08 1001.93 1001.77 1001.44 1001.14 1000.75 1000.64 1000.70 1000.62 1000.66 1000.70 1000.97 1001.09 1001.30 1001.30 1001.20 1001.10 1000.87 1000.75 1000.99 1001.40 1002.37 1003.39 1003.95 1004.59 1005.31 1006.04 1006.50 1006.76 1007.10 1007.69 1008.07 1008.34 1008.38 1008.53 1008.71 1009.05 1009.47 1009.52 1009.59 1009.79 1009.43 1009.51 1009.51 1009.48
1003.49 1002.85 1002.54 1002.31 1001.88 1001.52 1001.25 1000.78 1000.75 1000.25 1000.09 999.99 1000.07 1000.21 1000.38 1000.71 1000.89 1001.03 1001.23 1001.35 1001.53 1001.24 1001.19 1001.31 1001.79 1002.06 1002.43 1003.52 1004.10 1004.63 1005.39 1005.79 1006.17 1006.49 1006.97 1007.59 1007.67 1007.99 1008.20 1008.43 1008.56 1008.90 1008.58 1008.61 1008.80 1008.90 1009.20 1009.56 1009.61
1003.52 1003.10 1002.43 1001.25 1000.53 1000.36 1000.43 1000.07 999.95 999.34 999.01 999.07 999.19 999.53 999.81 1000.05 1000.31 1000.67 1000.87 1000.96 1001.13 1001.29 1001.25 1001.25 1002.05 1002.48 1002.35 1003.08 1003.61 1004.19 1004.67 1005.05 1005.51 1005.93 1006.31 1007.02 1007.23 1007.67 1007.89 1008.17 1008.31 1008.43 1008.30 1008.23 1008.39 1008.64 1009.15 1009.54 1009.63
1003.48 1002.85 1001.30 999.18 999.38 999.30 999.47 998.77 999.03 998.86 998.53 998.53 998.81 998.93 999.16 999.61 999.89 1000.01 1000.34 1000.65 1000.86 1001.04 1001.38 1001.41 1001.66 1002.21 1002.80 1002.66 1003.43 1003.67 1004.02 1004.40 1004.75 1005.24 1005.72 1006.41 1006.80 1007.20 1007.62 1008.03 1008.23 1008.20 1008.25 1008.46 1008.73 1008.82 1009.33 1009.53 1009.57
1001.45 1001.29 1000.23 999.47 999.35 999.33 999.19 998.04 998.23 997.99 997.59 997.43 997.74 997.86 998.18 998.51 998.79 999.18 999.75 1000.25 1000.75 1000.87 1001.23 1001.42 1001.23 1001.93 1002.20 1002.97 1002.80 1003.41 1003.59 1004.04 1004.17 1004.60 1005.24 1005.98 1006.39 1006.88 1007.41 1007.79 1008.02 1007.92 1008.25 1008.51 1008.74 1008.80 1009.24 1009.58 1009.63
1002.06 1001.75 1001.25 1000.57 999.98 999.36 998.60 997.91 997.60 997.42 997.24 996.93 996.85 996.89 997.11 997.30 997.56 998.09 998.65 999.11 999.68 1000.33 1000.79 1001.22 1001.29 1001.62 1002.41 1001.60 1002.87 1003.42 1003.29 1003.49 1003.76 1004.14 1004.63 1005.60 1006.08 1006.73 1007.27 1007.65 1007.80 1008.03 1008.33 1008.51 1008.64 1008.94 1009.30 1009.68 1009.96
1003.09 1002.55 1001.54 1000.61 999.62 999.25 998.94 998.49 997.82 996.98 996.27 996.22 996.42 996.82 997.09 997.25 997.27 997.49 997.94 998.31 998.82 999.46 1000.16 1000.67 1001.25 1001.36 1001.72 1002.41 1002.49 1003.27 1003.87 1003.28 1003.45 1003.78 1004.15 1005.11 1005.92 1006.48 1007.21 1007.60 1007.67 1007.83 1008.29 1008.52 1008.70 1009.18 1009.67 1009.89 1009.83
1002.94 1002.12 1001.16 1000.41 1000.16 1000.29 999.50 998.29 996.86 995.97 996.05 996.73 996.76 997.28 997.48 997.91 998.05 998.13 998.30 998.55 998.75 998.94 999.34 1000.05 1000.43 1000.91 1001.24 1001.95 1002.17 1002.69 1003.15 1003.17 1002.98 1003.07 1003.73 1004.71 1005.57 1006.43 1006.97 1007.40 1007.55 1007.76 1008.16 1008.56 1008.73 1009.15 1009.69 1009.98 1010.07
1002.59 1001.95 1001.36 1001.29 1000.90 1000.21 998.67 997.13 996.26 996.00 996.59 997.52 998.31 998.67 998.59 998.67 998.65 998.64 998.51 998.48 998.52 998.73 998.95 999.29 999.83 1000.21 1000.54 1000.88 1001.56 1002.06 1002.73 1002.73 1002.82 1002.59 1003.30 1004.37 1005.16 1005.80 1006.55 1007.17 1007.30 1007.73 1008.06 1008.36 1008.92 1009.29 1009.72 1009.93 1010.40
1002.73 1002.38 1002.16 1001.59 1000.86 999.54 999.10 997.48 997.36 997.67 998.29 999.13 999.54 999.81 1000.02 1000.03 999.63 999.03 998.70 998.27 998.00 997.96 998.28 998.59 999.07 999.43 999.96 1000.42 1001.09 1001.51 1001.97 1002.39 1002.52 1002.57 1002.74 1003.89 1004.68 1005.53 1006.25 1006.85 1007.15 1007.57 1008.04 1008.22 1008.85 1009.27 1009.77 1009.96 1010.58
1003.02 1002.48 1002.23 1001.38 1000.52 999.96 998.91 998.40 998.09 998.59 999.51 1000.05 1000.51 1001.04 1001.33 1000.81 1000.23 999.39 998.55 997.74 997.05 996.87 997.18 997.79 998.38 998.83 999.26 999.91 1000.43 1001.00 1001.59 1001.97 1001.99 1002.53 1002.92 1003.46 1004.38 1005.22 1005.84 1006.35 1006.63 1007.32 1007.94 1008.22 1008.72 1009.48 1010.07 1010.25 1010.51
1002.52 1002.38 1001.95 1001.49 1000.42 1000.14 999.95 1000.31 999.05 999.81 1001.25 1001.17 1001.51 1001.80 1001.54 1000.86 1000.32 999.38 998.07 997.53 996.81 996.22 995.78 996.50 997.26 998.09 998.68 999.13 999.86 1000.23 1001.01 1001.34 1001.75 1002.22 1002.62 1003.07 1003.89 1004.87 1005.57 1006.07 1006.61 1007.30 1008.09 1008.63 1009.27 1009.94 1010.59 1010.84 1011.03
1003.06 1003.15 1003.60 1002.87 1001.69 1001.33 1000.76 1000.79 1001.21 1001.45 1002.11 1002.57 1002.76 1002.71 1002.24 1001.16 1000.02 998.94 998.46 998.40 997.58 996.42 995.88 995.06 996.01 996.87 997.79 998.31 999.14 999.45 1000.02 1000.69 1001.05 1001.58 1002.33 1002.65 1003.42 1004.34 1005.28 1005.78 1006.65 1007.54 1008.21 1009.05 1009.79 1010.58 1011.17 1011.57 1012.07
1003.55 1004.36 1005.76 1006.09 1004.92 1003.92 1002.48 1001.61 1002.21 1002.65 1002.81 1003.45 1003.44 1003.50 1003.57 1002.72 1001.33 999.71 999.17 998.52 996.89 995.55 994.75 995.27 994.75 995.77 996.61 997.45 998.19 998.67 999.20 999.84 1000.48 1000.68 1001.13 1002.01 1002.90 1003.99 1004.81 1005.85 1006.80 1007.84 1008.68 1009.46 1010.35 1011.15 1011.91 1012.27 1012.67
1003.77 1004.55 1005.50 1007.31 1006.85 1005.93 1003.07 1002.13 1002.81 1002.54 1002.87 1003.32 1003.58 1003.75 1003.60 1003.36 1002.27 1000.53 999.01 997.66 996.65 994.33 993.99 994.42 993.20 994.48 995.41 996.27 997.25 997.77 998.38 999.09 999.89 1000.01 1000.19 1001.29 1002.43 1003.56 1004.75 1006.30 1007.12 1008.23 1009.17 1010.04 1010.84 1011.78 1012.43 1012.83 1013.41
1004.72 1005.69 1006.10 1007.66 1007.95 1006.75 1004.63 1003.73 1003.03 1003.32 1003.66 1004.14 1004.11 1004.34 1003.99 1003.46 1002.47 1000.28 998.32 996.91 995.70 994.52 993.79 992.96 992.11 993.41 994.49 995.74 996.27 997.16 997.49 998.41 999.13 999.60 999.42 1000.65 1001.77 1003.43 1005.25 1006.56 1007.49 1008.74 1009.81 1010.62 1011.27 1012.10 1012.79 1013.35 1013.97
1005.13 1005.74 1005.95 1007.06 1007.99 1008.22 1006.65 1004.63 1004.06 1004.17 1004.55 1004.57 1004.67 1004.73 1004.48 1003.36 1002.37 1000.83 998.42 995.80 994.37 993.48 993.31 993.35 992.56 993.11 993.91 994.82 995.27 996.08 997.04 997.37 998.04 999.25 998.82 1000.53 1002.06 1004.23 1005.61 1006.85 1008.16 1009.36 1010.29 1011.27 1012.25 1012.51 1013.55 1013.95 1014.59
1004.08 1005.23 1005.86 1007.16 1008.12 1008.53 1007.70 1005.57 1004.17 1004.11 1004.49 1005.08 1005.03 1005.15 1004.81 1003.64 1002.34 1000.94 998.43 995.04 992.49 992.38 992.33 992.79 993.10 993.44 994.03 994.54 994.22 995.91 994.33 997.62 998.08 999.13 999.86 1000.99 1003.19 1004.66 1006.07 1007.47 1008.97 1010.19 1011.35 1011.85 1012.64 1013.51 1014.33 1014.61 1015.26
Wind_Speed
17 14 10 10 7 8 15 18 18 18 0 10 10 11 16 16 12 7 7 11 11 18 16 16 15 14 15 14 14 15 15 14 15 13 10 10 9 11 13 13 11 11 11 12 12 10 7 5 4
12 18 8 7 9 12 13 20 18 16 15 10 7 7 8 19 20 13 10 5 4 17 14 14 14 14 16 13 14 16 15 15 14 14 13 10 9 9 10 12 12 11 11 11 11 8 7 4 3
13 16 8 6 13 16 15 19 11 11 12 6 4 5 9 7 14 6 9 4 1 17 15 13 14 15 15 17 14 17 18 16 15 13 12 13 10 9 9 11 11 10 12 11 9 7 6 4 2
9 6 7 10 19 18 22 19 6 7 4 3 4 8 7 10 6 7 8 5 4 18 16 19 14 13 15 16 16 15 16 17 16 16 13 11 13 10 9 10 10 10 9 9 7 5 4 3 1
8 7 11 13 17 19 20 20 11 4 9 11 6 11 1 12 11 8 8 5 5 5 18 17 17 12 15 16 17 16 17 18 17 16 14 13 10 11 10 10 10 10 8 8 7 5 4 2 1
8 7 12 13 18 22 18 7 2 2 9 14 6 6 4 13 10 7 8 5 2 14 16 15 16 14 13 15 16 17 16 16 17 17 16 14 12 11 9 9 10 10 9 8 7 5 3 2 2
12 11 15 17 17 20 6 8 5 6 9 15 15 9 4 3 14 8 4 6 7 9 19 15 14 13 13 14 15 15 17 16 16 16 15 15 14 12 11 10 9 9 8 7 6 6 5 4 4
11 12 19 17 16 18 12 3 6 5 12 18 16 7 7 10 10 8 8 9 6 12 19 16 13 14 12 12 15 16 15 17 16 16 16 15 15 13 12 10 8 9 8 8 7 7 6 7 9
11 8 12 17 13 12 17 12 5 3 12 8 16 17 15 20 17 13 10 13 10 8 8 16 15 13 12 12 12 15 17 15 16 14 15 14 9 10 12 11 12 10 9 9 8 8 9 11 11
7 9 13 11 11 12 14 13 14 15 15 16 16 20 18 19 15 16 13 12 13 10 14 10 14 16 13 11 12 11 12 10 9 10 11 9 9 10 12 12 15 12 10 9 10 10 11 9 7
3 11 15 12 11 11 13 14 14 15 16 16 16 16 18 17 16 16 15 14 12 14 9 14 10 13 16 13 10 7 6 7 9 12 11 9 8 9 7 6 7 6 9 6 8 7 6 9 8
8 12 12 10 11 13 14 15 17 17 18 17 17 17 16 18 17 18 17 15 14 14 9 17 15 12 13 9 11 10 8 8 8 10 12 8 6 9 6 8 9 8 6 9 7 7 8 9 3
13 15 13 10 15 15 17 19 20 21 19 18 19 18 17 15 16 14 16 14 15 15 13 3 17 10 12 9 10 10 9 9 9 9 11 9 8 8 7 5 8 8 8 8 8 5 4 2 4
16 18 15 18 20 18 19 17 15 19 19 18 17 16 15 15 14 13 12 11 12 10 10 6 10 11 11 10 12 10 10 11 10 9 11 11 7 6 5 4 3 6 5 5 5 5 3 3 2
14 17 18 22 18 13 13 19 20 22 18 14 12 13 14 14 15 13 11 10 10 8 7 7 7 11 10 8 6 10 10 11 10 10 13 13 7 6 6 4 3 4 3 3 2 4 4 3 1
21 20 18 8 12 10 10 21 16 16 15 14 15 14 13 13 16 14 9 8 8 6 6 10 8 14 11 11 6 8 9 8 10 9 10 14 9 8 5 4 5 5 4 2 2 3 3 5 2
22 16 16 16 19 18 20 20 18 19 20 18 17 18 15 15 16 11 11 10 9 7 7 8 9 15 15 13 6 7 9 10 9 7 10 14 11 10 5 4 5 4 3 3 3 2 2 2 1
17 19 18 18 19 19 20 21 19 19 21 20 18 17 16 15 14 14 15 15 10 8 8 7 8 6 19 15 10 3 9 9 6 7 9 14 9 10 6 3 5 5 3 3 2 3 3 2 2
15 17 20 20 17 18 18 22 23 22 16 15 11 13 13 13 11 5 5 9 10 10 9 9 9 9 5 10 11 10 8 7 10 10 10 16 11 9 8 5 7 6 3 3 5 3 4 3 4
16 19 19 17 16 18 21 25 25 15 9 12 15 13 11 11 11 11 8 8 8 10 9 11 11 11 8 11 12 11 10 9 11 9 9 15 13 9 9 6 7 5 4 6 5 4 2 3 4
16 16 16 19 20 20 25 19 15 10 10 18 22 19 17 14 11 11 10 9 10 10 11 11 11 11 12 17 11 10 11 10 8 6 9 13 13 11 11 6 6 6 4 5 4 3 4 1 3
13 17 17 20 20 16 20 13 13 11 8 12 16 20 22 23 23 17 16 17 12 12 12 12 12 11 11 13 13 15 14 14 10 6 10 12 12 11 10 7 8 8 6 8 6 4 1 0 4
17 15 19 23 23 20 17 9 7 6 11 15 17 18 21 21 21 23 21 21 19 15 14 13 12 12 11 14 15 13 14 13 8 5 12 13 10 11 11 9 9 6 4 6 6 6 2 2 1
23 12 19 20 18 10 4 16 9 9 13 17 19 23 24 24 22 23 19 19 17 18 17 16 16 14 15 16 18 17 18 16 13 9 11 12 10 9 10 10 10 6 7 8 7 7 8 7 6
17 12 6 6 7 10 23 12 9 9 15 19 24 26 27 26 22 21 18 20 21 20 18 18 18 18 16 18 18 20 18 19 19 11 12 14 11 10 10 10 8 8 9 10 8 8 8 8 6
19 4 2 4 9 16 22 4 8 3 18 22 24 25 23 24 25 22 18 19 22 20 13 22 21 19 19 17 18 19 19 14 14 11 14 12 11 11 11 11 11 13 12 10 10 8 7 8 7
9 9 7 3 9 8 9 3 12 22 22 27 27 24 24 23 23 24 22 19 21 16 14 25 21 21 21 19 16 18 18 20 15 10 15 11 13 10 14 13 15 14 13 10 12 9 8 8 7
2 6 6 3 4 7 10 14 8 24 21 26 27 22 24 22 21 25 21 21 21 21 18 22 15 20 18 19 15 15 17 19 15 16 14 15 12 16 17 16 16 15 11 12 12 9 8 9 8
10 3 8 5 4 3 7 8 11 17 21 23 24 20 24 24 21 22 24 29 23 22 20 20 12 16 17 18 15 16 16 18 16 13 12 14 19 19 18 17 15 14 14 13 11 12 11 10 8
10 14 11 4 6 5 4 8 16 19 21 21 21 20 24 24 22 22 24 27 15 10 13 14 8 2 6 14 14 15 18 15 10 14 14 21 20 19 19 18 17 15 14 14 13 13 10 11 10
Wind_Direction
292 259 247 257 241 231 255 250 244 274 81 17 23 349 2 357 56 95 54 37 95 122 137 144 135 142 136 145 149 140 142 140 138 142 146 150 146 138 131 128 124 124 126 125 122 120 114 96 66
292 297 234 273 240 247 250 235 244 254 79 37 20 312 296 82 79 86 70 33 63 129 140 146 144 144 140 147 153 143 145 145 145 149 152 151 150 145 137 131 134 134 133 130 125 126 119 106 68
265 266 261 221 234 248 266 278 359 29 80 48 298 305 325 60 57 67 73 81 333 131 145 141 149 148 147 148 160 151 151 151 148 153 157 151 154 149 143 136 136 140 139 136 135 136 133 121 85
243 215 253 257 259 242 235 265 30 348 3 139 292 284 87 63 83 74 82 60 114 137 144 137 143 151 151 153 158 157 155 153 154 154 158 160 154 151 148 142 143 146 144 140 139 144 143 131 63
238 265 243 246 249 262 282 288 76 341 295 301 202 261 74 107 96 46 67 114 138 135 115 140 141 157 154 158 159 161 160 158 157 156 158 158 155 150 155 152 149 150 149 146 153 171 176 142 77
235 235 252 250 250 245 241 51 14 259 277 293 244 279 64 125 134 90 4 89 324 143 132 138 144 152 161 161 166 161 162 162 158 158 156 154 150 152 156 155 154 155 158 159 168 184 203 218 230
251 256 254 267 281 296 332 73 19 341 297 279 324 258 246 53 99 89 338 294 175 160 134 143 156 157 162 162 164 166 159 162 162 158 156 151 152 154 159 159 160 161 165 174 182 198 218 231 233
255 273 270 276 280 279 298 61 110 293 285 301 319 304 276 258 19 356 331 307 266 190 143 147 157 170 174 173 167 164 165 161 161 158 155 152 154 157 160 160 169 174 181 190 203 218 230 240 239
266 263 258 260 285 338 353 349 330 171 266 286 291 293 299 301 321 307 304 289 285 113 143 153 152 169 182 177 177 164 166 163 160 162 160 151 166 168 166 185 166 189 197 204 217 227 238 242 251
244 241 263 23 349 331 329 328 314 310 294 279 270 276 269 274 276 273 266 270 275 194 168 166 156 165 182 184 162 184 174 174 174 177 172 180 181 175 177 172 168 191 204 216 226 235 241 254 252
276 259 327 331 343 329 311 300 296 289 278 277 278 280 288 290 288 288 281 267 268 283 177 168 164 165 177 197 158 180 177 183 181 186 177 208 197 178 192 147 171 188 212 220 215 231 235 232 234
273 279 294 310 311 302 294 296 287 280 279 285 283 280 278 282 288 291 288 284 264 259 263 162 171 167 179 192 161 174 183 190 182 190 179 200 217 170 188 170 182 188 195 218 202 214 219 223 280
287 279 276 292 286 281 281 278 280 277 276 272 270 271 266 267 267 266 279 289 296 298 307 200 168 157 174 195 165 172 194 186 187 181 181 197 220 169 186 191 177 193 187 210 192 238 183 188 224
298 300 295 290 281 275 272 284 298 285 284 277 265 255 253 255 270 267 259 260 266 282 293 339 172 182 156 203 171 173 189 183 180 183 178 200 216 163 174 211 207 184 207 185 205 197 153 216 9
300 293 283 266 251 248 263 269 257 263 267 254 264 272 273 262 249 265 271 260 243 254 252 262 190 199 183 179 199 178 183 185 181 188 174 192 203 169 173 179 205 234 240 224 105 75 79 358 149
269 263 263 304 203 253 267 275 278 274 276 288 283 280 261 240 248 251 254 258 251 242 280 252 242 184 207 185 222 188 182 200 184 183 179 184 191 173 168 176 194 225 203 129 273 140 194 205 120
258 235 295 318 322 310 286 282 284 278 269 268 260 264 237 241 239 228 226 239 263 229 233 258 278 187 189 199 172 211 205 200 185 184 171 182 185 178 177 179 201 219 151 169 203 137 96 41 113
336 318 312 300 300 289 283 289 297 309 299 287 280 273 268 254 247 224 221 222 214 221 207 224 260 248 207 180 194 244 208 193 205 188 167 175 181 176 180 209 179 161 164 178 126 116 93 73 50
304 290 288 285 298 332 315 307 294 282 280 309 341 328 322 337 328 293 278 225 207 207 199 204 234 261 227 204 190 198 229 204 209 189 176 170 177 173 181 221 158 153 198 183 122 108 97 278 90
288 284 289 309 335 318 297 283 273 288 339 324 291 333 353 326 317 316 314 306 254 218 203 199 203 245 232 196 201 200 199 227 206 184 177 166 169 168 182 222 161 170 146 125 133 155 194 190 102
296 300 318 320 308 289 284 292 320 330 15 22 3 2 349 338 337 333 316 249 253 241 221 202 207 221 248 188 200 195 208 217 207 191 151 166 173 171 183 210 156 177 185 139 130 137 240 38 85
313 320 313 303 299 298 298 299 309 40 27 11 353 347 342 334 327 317 302 292 240 233 218 209 197 208 244 203 198 194 198 207 211 192 160 162 165 158 181 202 171 174 208 158 161 156 206 232 150
292 298 300 288 296 288 284 305 293 7 18 3 356 348 335 322 312 311 311 303 283 220 208 201 199 203 234 207 203 200 205 207 201 188 160 160 161 169 184 193 145 164 175 134 118 106 12 112 349
300 294 313 311 276 265 345 335 313 47 7 351 346 338 336 326 310 296 295 308 313 299 208 200 191 208 219 210 211 201 206 203 209 193 169 159 164 167 182 192 148 151 118 108 97 82 63 65 46
336 3 332 310 342 314 335 323 55 28 354 359 346 342 337 327 308 293 339 321 304 304 293 198 194 195 215 206 209 206 202 205 200 181 173 162 164 168 183 170 139 116 110 103 96 94 71 65 60
305 97 141 283 323 313 302 294 20 317 358 352 351 345 343 327 315 322 318 301 284 274 282 280 192 192 207 201 207 205 199 205 199 186 167 166 160 170 159 141 122 112 108 105 99 94 90 83 68
333 4 350 150 276 279 282 19 194 7 355 350 342 345 341 326 320 314 297 286 281 274 276 294 190 189 201 196 199 204 200 203 198 186 165 161 159 157 136 128 117 112 109 117 106 100 105 95 76
24 298 327 17 308 299 317 310 7 350 354 346 344 345 332 324 322 312 309 300 279 264 269 265 177 189 190 194 194 198 196 194 183 190 175 160 146 133 123 119 115 114 113 105 108 102 84 90 87
242 1 312 351 289 306 300 305 20 4 353 347 339 347 332 328 326 316 312 305 277 272 256 206 191 195 177 185 185 196 200 190 183 168 163 131 119 122 119 118 113 110 113 101 104 96 93 89 82
36 348 337 335 291 224 251 273 5 360 351 349 333 343 336 328 327 332 324 332 265 180 255 82 50 45 205 192 188 175 203 176 163 171 134 115 122 119 118 113 111 111 105 103 96 99 93 89 83